Regional Weather Roundup
Issued by NWS

Home | Current Version | Previous Version | Graphics & Text | Print | Product List | Glossary Off
Versions: 1 2 3 4 5 6 7 8 9 10 11 12 13 14 15 16 17 18 19 20 21 22 23 24 25 26 27 28 29 30 31 32 33 34 35 36 37 38 39 40 41 42 43 44 45 46 47 48 49 50

000
ASUS43 KDTX 252010
RWRMI
MICHIGAN HOURLY REGIONAL WEATHER ROUNDUP
NATIONAL WEATHER SERVICE DETROIT/PONTIAC MI
400 PM EDT SUN SEP 25 2016

NOTE: "FAIR" INDICATES FEW OR NO CLOUDS BELOW 12,000 FEET WITH NO
SIGNIFICANT WEATHER AND/OR OBSTRUCTION TO VISIBILITY.

MIZ047>049-052>055-059>063-066>070-074>076-081>083-252100-
SOUTHEAST LOWER MICHIGAN

CITY           SKY/WX    TMP DP  RH WIND       PRES   REMARKS
ADRIAN         PTSUNNY   74  42  31 SE9       30.11F
ALMA           CLOUDY    74  55  51 SE9       30.08F
ANN ARBOR      MOSUNNY   71  49  45 SE10      30.11F
BAD AXE        MOSUNNY   69  51  52 S9G18     30.12F
CARO           SUNNY     71  54  55 SE8       30.10F
DETROIT CITY   SUNNY     70  49  47 E15       30.13F
DETROIT        PTSUNNY   72  47  40 E7        30.13F
FLINT          PTSUNNY   71  52  50 SE14      30.10F
GROSSE ILE     SUNNY     71  51  50 S10       30.11F
HILLSDALE      MOSUNNY   75  46  35 E8        30.10F
HOWELL         SUNNY     72  52  49 SE9       30.10F

CITY           SKY/WX    TMP DP  RH WIND       PRES   REMARKS
JACKSON        MOSUNNY   73  49  42 SE12      30.09F
LAMBERTVILLE   MOSUNNY   73  52  47 E7        30.13S
LANSING        SUNNY     74  51  44 SE9       30.08F
LAPEER         FAIR      71  48  44 S7        30.13F
MASON          SUNNY     73  51  46 SE9       30.10S
MONROE         SUNNY     70  50  50 SE8G22    30.12F
MT. CLEMENS    PTSUNNY   69  50  52 SE15      30.12F
PONTIAC        CLOUDY    71  48  43 SE9       30.11F
PORT HOPE        N/A     66  52  60 SE15G24   30.11F
PORT HURON     SUNNY     70  50  49 SE10G16   30.13F
TRI CITIES     CLOUDY    73  53  49 S13       30.09F
MIDLAND        FAIR      73  52  48 S8        30.07F
TROY           SUNNY     73  43  34 E13       30.14F
SAGINAW HB     CLOUDY    73  52  46 SE10      30.08F
$$
MIZ043>046-050>051-056>058-064>065-071>073-077>080-252100-
SOUTHWEST LOWER MICHIGAN

CITY           SKY/WX    TMP DP  RH WIND       PRES   REMARKS
BATTLE CREEK   SUNNY     76  54  46 SE9       30.07F
BENTON HARBOR  CLOUDY    81  63  54 SE7       30.01F
BIG RAPIDS     MOSUNNY   72  58  61 SE13      30.04F
COLDWATER      SUNNY     75  56  50 SE6       30.08F
FREMONT        FAIR      73  57  56 SE9G17    30.02F
HOLLAND        MOSUNNY   77  63  61 SE12      30.03F
GRAND RAPIDS   PTSUNNY   75  57  53 SE12      30.05F
IONIA          FAIR      73  50  43 SE13      30.06F
KALAMAZOO      SUNNY     78  56  46 SE8       30.05F
LUDINGTON      MOSUNNY   74  62  66 SE12G17   29.97F
MARSHALL       SUNNY     75  52  44 SE7       30.07F
MOUNT PLEASANT MOSUNNY   73  55  51 SE10G16   30.06F
MUSKEGON       CLOUDY    77  61  57 SE14      30.00F
SOUTH HAVEN    CLOUDY    80  64  58 SE6       30.02S
$$
MIZ016>042-252100-
NORTHERN LOWER MICHIGAN

CITY           SKY/WX    TMP DP  RH WIND       PRES   REMARKS
ALPENA         CLOUDY    69  51  52 SE14      30.08F
BEAVER ISLAND  PTSUNNY   68  56  65 SE13G20   30.00F
BELLAIRE       MOSUNNY   74  52  47 S10G16    30.00F
CADILLAC       MOSUNNY   71  56  58 SE12G18   30.04F
CHARLEVOIX     CLOUDY    73  53  50 SE12      30.03F
FRANKFORT      PTSUNNY   74  58  58 SE15      29.96F
GAYLORD        CLOUDY    70  49  47 S12G21    30.05F
GRAYLING       CLOUDY    71  52  51 SE13      30.06F
HARBOR SPRINGS CLOUDY    72  54  54 E9        30.01F
HOUGHTON LAKE  MOSUNNY   69  53  56 SE9       30.08F
MANISTEE       MOSUNNY   74  60  61 SE9G17    29.97F
OSCODA         MOSUNNY   69  51  52 S8G16     30.10F
PELLSTON       MOSUNNY   71  52  50 S9G20     30.04F
ROGERS CITY    CLOUDY    70  50  49 SE10G18   30.07F
TRAVERSE CITY  CLOUDY    75  56  51 SE10G17   29.98F
$$
MIZ007>008-015-252100-
EASTERN UPPER MICHIGAN

CITY           SKY/WX    TMP DP  RH WIND       PRES   REMARKS
KINROSS        MOSUNNY   65  51  60 SE15      30.06S
MACKINAC ISLAN MOSUNNY   64  54  68 E13G21    30.05F
NEWBERRY       CLOUDY    65  53  64 SE14      30.01S
S. S. MARIE    PTSUNNY   66  51  58 SE15      30.06F
MUNISING         N/A     63  59  87 S10G21    29.93F
$$
MIZ004>006-011>014-085-252100-
CENTRAL UPPER MICHIGAN

CITY           SKY/WX    TMP DP  RH WIND       PRES   REMARKS
MANISTIQUE     LGT RAIN  62  59  90 SE10G17   29.98F
ESCANABA       CLOUDY    66  61  84 S14       29.95F
MENOMINEE      RAIN      66  64  94 S13G20    29.89F FOG
SAWYER-GWINN   HVY RAIN  61  59  94 S13G22    29.94F
$$
MIZ001>003-009>011-084-252100-
WESTERN UPPER MICHIGAN

CITY           SKY/WX    TMP DP  RH WIND       PRES   REMARKS
IRON MOUNTAIN  CLOUDY    64  62  93 SE8       29.88F
HOUGHTON       LGT RAIN  64  61  90 SE7       29.82F
COPPER HARBOR    N/A     64  62  93 S12G28    29.81F
IRONWOOD       CLOUDY    69  64  84 S14G21    29.79F
$$

ABBREVIATIONS USED IN REMARKS
   TC - TEMPERATURE IN CELSIUS
  WCI - WIND CHILL INDEX
   HX - HEAT INDEX
  VSB - VISIBILITY




USA.gov is the U.S. government's official web portal to all federal, state and local government web resources and services.